Overview Statistics Trail Chart Weather Telemetry Raw packets
 

This is the latest recevied weather packets stored in our database for station/object OK1FET-4. If no packets are shown the sender has not sent any weather packets the latest 10 day(s).

<< 45 46 47 48 49 50 51 >>
Time Temp. Humidity Pressure Rain* Wind** Luminosity Snow
1788354934 26.67° C 38% 1020.8 hPa - - - -
1788354633 26.11° C 38% 1020.8 hPa - - - -
1788354331 26.11° C 39% 1021 hPa - - - -
1788354029 27.22° C 37% 1021 hPa - - - -
1788353727 27.78° C 39% 1021 hPa - - - -
1788353426 26.67° C 41% 1021 hPa - - - -
1788353124 26.67° C 39% 1021 hPa - - - -
1788352822 27.22° C 40% 1021 hPa - - - -
1788352520 26.67° C 41% 1021.1 hPa - - - -
1788352219 26.11° C 41% 1021.1 hPa - - - -
1788351917 25° C 42% 1021.2 hPa - - - -
1788351616 25.56° C 41% 1021.1 hPa - - - -
1788351314 25.56° C 42% 1021.2 hPa - - - -
1788351013 25° C 41% 1021.3 hPa - - - -
1788350711 25.56° C 40% 1021.3 hPa - - - -
1788350409 25.56° C 41% 1021.3 hPa - - - -
1788350108 25.56° C 40% 1021.4 hPa - - - -
1788349806 26.11° C 39% 1021.4 hPa - - - -
1788349504 26.11° C 41% 1021.4 hPa - - - -
1788349203 25.56° C 41% 1021.3 hPa - - - -
1788348901 26.11° C 40% 1021.4 hPa - - - -
1788348599 26.11° C 43% 1021.4 hPa - - - -
1788348298 25.56° C 42% 1021.6 hPa - - - -
1788347996 25.56° C 41% 1021.6 hPa - - - -
1788347695 25.56° C 43% 1021.7 hPa - - - -

* Rain since midnight (hover to see other rain measurements)
** Current wind speed in m/s (hover to see current wind gust speed)